Regional Weather Roundup
Issued by NWS Cleveland, OH

Home | Current Version | Previous Version | Graphics & Text | Print | Product List | Glossary Off
Versions: 1 2 3 4 5 6 7 8 9 10 11 12 13 14 15 16 17 18 19 20 21 22 23 24 25 26 27 28 29 30 31 32 33 34 35 36 37 38 39 40 41 42 43 44 45 46 47 48 49 50

000
ASUS41 KCLE 231002
RWRCLE
OHIO REGIONAL WEATHER ROUNDUP
NATIONAL WEATHER SERVICE CLEVELAND, OH
500 AM EST MON JAN 23 2017

NOTE: "FAIR" INDICATES FEW OR NO CLOUDS BELOW 12,000 FEET WITH NO
SIGNIFICANT WEATHER AND/OR OBSTRUCTIONS TO VISIBILITY.

OHZ001>008-015>018-024>027-034-035-043-044-231100-
   NORTHWEST OHIO

CITY           SKY/WX    TMP DP  RH WIND       PRES   REMARKS
DEFIANCE       CLOUDY    42  42 100 NE10      29.59S
FINDLAY        FOG       39  36  89 NE14G24   29.54S VSB 3/4
TOLEDO EXPRESS FOG       42  42 100 NE15      29.59S VSB 1
TOLEDO EXEC    CLOUDY    40  40 100 NE10G21   29.60S FOG
LIMA           LGT RAIN  39  39 100 N14       29.52F VSB 3/4
$$

OHZ009>014-019>023-028>033-038-089-231100-
   NORTHEAST OHIO

CITY           SKY/WX    TMP DP  RH WIND       PRES   REMARKS
CLE-HOPKINS    LGT RAIN  41  38  89 N8        29.57S FOG
CLE-LAKEFRONT  LGT RAIN  38  36  92 NE14      29.56R FOG
CUY CO. ARPT   NOT AVBL
LORAIN-ELYRIA  LGT RAIN  38  36  92 NE8       29.55S FOG
ASHTABULA      LGT RAIN  38  38 100 NE6       29.60R VSB 3/4
AKRON-CANTON   LGT RAIN  49  46  90 E15       29.51S
WOOSTER        LGT RAIN  49  46  90 NE12      29.50F
MANSFIELD      LGT RAIN  45  45 100 N10       29.49F FOG
YOUNGSTOWN     LGT RAIN  50  44  80 E14       29.55S
$$

OHZ042-051>053-060>062-070>072-077>081-231100-
  SOUTHWEST OHIO

CITY           SKY/WX    TMP DP  RH WIND       PRES   REMARKS
CINC-COVINGTON LGT RAIN  50  48  93 N15       29.42R
CINC-LUNKEN    CLOUDY    53  48  83 N10       29.42S
HAMILTON       CLOUDY    50  47  89 N14       29.45R
DAYTON         CLOUDY    43  42  97 N17       29.47F FOG
WRIGHT-PAT AFB CLOUDY    46  46  99 N12       29.46R
DAYTON GENERAL CLOUDY    48  45  89 N14       29.43S
WILMINGTON     CLOUDY    50  48  93 N15       29.41R
$$

OHZ036-037-039>041-045>050-054>059-063>069-073>076-082>088-231100-
  CENTRAL AND SOUTHEAST OHIO

CITY           SKY/WX    TMP DP  RH WIND       PRES   REMARKS
COLUMBUS       LGT RAIN  53  48  83 NE9       29.42F
OSU AIRPORT    LGT RAIN  48  48 100 N10       29.44S
BOLTON FIELD   CLOUDY    49  48  95 N10       29.43F
RICKENBACK AFB DRIZZLE   51  50  93 N12G17    29.41S
NEWARK         CLOUDY    53  47  79 NE9       29.43S
MARION         LGT RAIN  41  39  93 N13       29.50S FOG
LANCASTER      CLOUDY    54  48  80 NE10      29.42S
ZANESVILLE     CLOUDY    52  46  80 NE13      29.42F
NEW PHILLY     NOT AVBL
$$




USA.gov is the U.S. government's official web portal to all federal, state and local government web resources and services.